GW4330 Weather Reports


Display with metric or nautical units.
time (UTC)temp
F
wind
direction
speed
MPH
gust
MPH
rain 1hr
in
rain 24hr
in
rain mn
in
humidity
%
barometer
mb
20260509023838 61 65 1.0 2.0 0.00 0.01 0.01 80 1019.6
20260509023336 61 88 0.0 0.0 0.00 0.01 0.01 79 1019.6
20260509022832 61 70 1.0 1.0 0.00 0.01 0.01 79 1019.8
20260509022330 62 21 1.0 1.0 0.00 0.01 0.01 78 1019.8
20260509021826 62 75 0.0 1.0 0.00 0.01 0.01 77 1019.8
20260509021323 62 98 2.0 2.0 0.00 0.01 0.01 78 1019.8
20260509020821 62 61 0.0 1.0 0.00 0.01 0.01 76 1019.8
20260509020319 62 72 0.0 0.0 0.00 0.01 0.01 75 1019.9
20260509015816 63 70 1.0 2.0 0.00 0.01 0.01 75 1019.6
20260509015314 63 72 0.0 1.0 0.00 0.01 0.01 76 1019.5
20260509014810 63 65 0.0 1.0 0.00 0.01 0.01 75 1019.4
20260509014308 63 58 2.0 2.0 0.00 0.01 0.01 75 1019.6
20260509013804 64 60 1.0 1.0 0.00 0.01 0.01 75 1019.4
20260509013300 64 62 1.0 2.0 0.00 0.01 0.01 76 1019.4
20260509012756 65 61 1.0 3.0 0.00 0.01 0.01 74 1019.2
20260509012253 65 81 1.0 2.0 0.00 0.01 0.01 74 1018.9
20260509011751 65 74 0.0 1.0 0.00 0.01 0.01 71 1019.0
20260509011248 65 46 1.0 2.0 0.00 0.01 0.01 72 1018.7
20260509010746 65 70 1.0 3.0 0.00 0.01 0.01 71 1018.8
20260509010242 65 70 1.0 2.0 0.00 0.01 0.01 73 1018.6
20260509005740 65 68 1.0 2.0 0.00 0.01 0.01 73 1018.6
20260509005232 65 40 1.0 3.0 0.00 0.01 0.01 70 1018.5
20260509004731 66 78 0.0 1.0 0.00 0.01 0.01 71 1018.7
20260509004229 66 87 2.0 6.0 0.00 0.01 0.01 70 1018.9
20260509003727 66 82 1.0 2.0 0.00 0.01 0.01 69 1018.7
20260509003224 66 70 1.0 1.0 0.00 0.01 0.01 66 1018.7
20260509002721 66 74 1.0 3.0 0.00 0.01 0.01 68 1018.6
20260509002219 66 88 2.0 3.0 0.00 0.01 0.01 70 1018.5
20260509001716 66 74 2.0 6.0 0.00 0.01 0.01 69 1018.5
20260509001212 66 86 1.0 2.0 0.00 0.01 0.01 68 1018.7
20260509000710 66 79 1.0 2.0 0.00 0.01 0.01 68 1018.4
20260509000207 66 70 2.0 3.0 0.00 0.01 0.01 72 1018.5
20260508235704 67 69 2.0 2.0 0.00 0.01 0.01 73 1018.5
20260508235200 67 66 2.0 3.0 0.00 0.01 0.01 70 1018.4
20260508234658 67 49 3.0 4.0 0.00 0.01 0.01 72 1018.3
20260508234154 66 72 3.0 3.0 0.00 0.01 0.01 71 1018.1
20260508233654 65 50 2.0 3.0 0.00 0.01 0.01 68 1018.3
20260508233151 65 30 1.0 2.0 0.00 0.01 0.01 67 1018.2
20260508232648 65 55 3.0 4.0 0.00 0.01 0.01 66 1018.5
20260508232144 65 79 1.0 1.0 0.00 0.01 0.01 65 1018.1
20260508231643 66 75 4.0 6.0 0.00 0.01 0.01 64 1018.1
20260508231139 66 72 2.0 2.0 0.00 0.01 0.01 64 1017.9
20260508230636 66 28 2.0 3.0 0.00 0.01 0.01 62 1017.9
20260508230132 66 18 2.0 3.0 0.00 0.01 0.01 61 1017.9
20260508225631 66 20 2.0 3.0 0.00 0.01 0.01 61 1017.7
20260508225126 66 12 4.0 8.0 0.00 0.01 0.01 61 1017.9
20260508224624 67 72 4.0 7.0 0.00 0.01 0.01 59 1017.8
20260508224122 67 68 1.0 2.0 0.00 0.01 0.01 59 1017.7
20260508223619 68 37 2.0 2.0 0.00 0.01 0.01 59 1017.8
20260508223116 68 83 2.0 3.0 0.00 0.01 0.01 56 1017.7
20260508222614 69 66 5.0 7.0 0.00 0.01 0.01 54 1017.6
20260508222111 69 72 0.0 1.0 0.00 0.01 0.01 54 1017.6
20260508221607 69 51 1.0 1.0 0.00 0.01 0.01 56 1017.6
20260508221102 69 64 1.0 1.0 0.00 0.01 0.01 52 1017.9
20260508220559 69 70 1.0 2.0 0.00 0.01 0.01 51 1017.7
20260508220055 70 70 0.0 0.0 0.00 0.01 0.01 51 1017.8
20260508215553 69 49 1.0 1.0 0.00 0.01 0.01 52 1017.7
20260508215049 69 77 0.0 0.0 0.00 0.01 0.01 52 1017.9
20260508214547 69 59 0.0 0.0 0.00 0.01 0.01 53 1017.9
20260508214043 69 66 0.0 1.0 0.00 0.01 0.01 54 1018.3
20260508213540 69 80 0.0 0.0 0.00 0.01 0.01 54 1018.0
20260508213036 69 68 0.0 1.0 0.00 0.01 0.01 54 1018.2
20260508212533 69 86 1.0 1.0 0.00 0.01 0.01 54 1017.9
20260508212029 69 45 0.0 1.0 0.00 0.01 0.01 55 1018.3
20260508211525 69 72 0.0 1.0 0.00 0.01 0.01 55 1018.0
20260508211021 69 76 0.0 0.0 0.00 0.01 0.01 55 1018.0
20260508210518 69 56 0.0 1.0 0.00 0.01 0.01 53 1017.8
20260508210016 69 72 0.0 1.0 0.00 0.01 0.01 56 1018.0
20260508205512 69 81 0.0 0.0 0.00 0.01 0.01 54 1017.8
20260508205008 68 74 0.0 0.0 0.00 0.01 0.01 54 1017.8
20260508204506 68 81 0.0 0.0 0.00 0.01 0.01 53 1018.1
20260508204001 68 91 1.0 2.0 0.00 0.01 0.01 52 1017.9
20260508203457 68 79 1.0 1.0 0.00 0.01 0.01 50 1018.1
20260508202953 68 60 0.0 1.0 0.00 0.01 0.01 50 1018.1
20260508202450 68 65 1.0 1.0 0.00 0.01 0.01 46 1018.4
20260508201947 68 46 0.0 1.0 0.00 0.01 0.01 49 1018.4
20260508201444 68 65 0.0 1.0 0.00 0.01 0.01 49 1018.3
20260508200941 68 57 0.0 1.0 0.00 0.01 0.01 51 1018.4
20260508200438 68 104 0.0 0.0 0.00 0.01 0.01 53 1018.6
20260508195932 68 64 1.0 1.0 0.00 0.01 0.01 49 1018.4
20260508195430 68 72 0.0 0.0 0.00 0.01 0.01 51 1018.6
20260508194926 68 86 0.0 1.0 0.00 0.01 0.01 53 1018.7
20260508194424 68 47 0.0 1.0 0.00 0.01 0.01 57 1018.9
20260508193920 68 66 1.0 1.0 0.00 0.01 0.01 55 1018.8
20260508193417 67 65 0.0 1.0 0.00 0.01 0.01 56 1019.1
20260508192913 67 62 0.0 1.0 0.00 0.01 0.01 58 1019.0
20260508192410 68 75 0.0 1.0 0.00 0.01 0.01 55 1019.1
20260508191908 68 78 0.0 1.0 0.00 0.01 0.01 56 1019.2
20260508191405 68 97 0.0 1.0 0.00 0.01 0.01 57 1019.3
20260508190902 68 51 0.0 1.0 0.00 0.01 0.01 56 1019.5
20260508190359 68 45 1.0 1.0 0.00 0.01 0.01 56 1019.3
20260508185854 67 63 0.0 1.0 0.00 0.01 0.01 57 1019.3
20260508185352 67 79 0.0 0.0 0.00 0.01 0.01 57 1019.6
20260508184849 67 64 1.0 2.0 0.00 0.01 0.01 56 1019.6
20260508184347 67 60 0.0 0.0 0.00 0.01 0.01 59 1019.6
20260508183843 68 28 1.0 2.0 0.00 0.01 0.01 59 1019.6
20260508183340 68 68 1.0 1.0 0.00 0.01 0.01 59 1019.7
20260508182836 68 74 1.0 1.0 0.00 0.01 0.01 60 1019.8
20260508182333 68 44 0.0 1.0 0.00 0.01 0.01 59 1019.8
20260508181828 67 72 0.0 1.0 0.00 0.01 0.01 63 1019.8
20260508181325 67 102 1.0 1.0 0.00 0.01 0.01 60 1019.8
20260508180823 68 81 0.0 1.0 0.00 0.01 0.01 59 1019.7
20260508180319 69 64 2.0 3.0 0.00 0.01 0.01 62 1019.9
20260508175815 67 66 0.0 1.0 0.00 0.01 0.01 63 1019.8
20260508175312 67 84 1.0 2.0 0.00 0.01 0.01 62 1019.8
20260508174810 67 83 2.0 2.0 0.00 0.01 0.01 65 1019.9
20260508174307 67 62 1.0 2.0 0.00 0.01 0.01 65 1019.9
20260508173803 66 97 2.0 3.0 0.00 0.01 0.01 67 1020.0
20260508173301 66 73 1.0 1.0 0.00 0.01 0.01 66 1020.0
20260508172756 67 51 1.0 2.0 0.00 0.01 0.01 66 1019.9
20260508172254 66 111 2.0 2.0 0.00 0.01 0.01 64 1019.8
20260508171750 66 92 1.0 3.0 0.00 0.01 0.01 68 1020.0
20260508171246 66 73 2.0 3.0 0.00 0.01 0.01 67 1020.1
20260508170743 66 78 1.0 2.0 0.00 0.01 0.01 65 1020.2
20260508170241 66 20 0.0 1.0 0.00 0.01 0.01 63 1020.2
20260508165738 66 55 0.0 2.0 0.00 0.01 0.01 66 1020.1
20260508165235 66 60 1.0 1.0 0.00 0.01 0.01 65 1020.4
20260508164731 66 46 1.0 2.0 0.00 0.01 0.01 64 1020.4
20260508164228 67 22 1.0 2.0 0.00 0.01 0.01 62 1020.4
20260508163726 68 64 2.0 2.0 0.00 0.01 0.01 64 1020.4
20260508163223 67 56 0.0 1.0 0.00 0.01 0.01 50 1020.6
20260508162719 67 43 0.0 1.0 0.00 0.01 0.01 51 1020.4
20260508162216 68 57 0.0 1.0 0.00 0.01 0.01 49 1020.6
20260508161713 68 64 0.0 1.0 0.00 0.01 0.01 49 1020.6
20260508161210 67 47 1.0 2.0 0.00 0.01 0.01 51 1020.7
20260508160708 69 62 3.0 3.0 0.00 0.01 0.01 47 1020.7
20260508160206 68 46 1.0 1.0 0.00 0.01 0.01 47 1020.7
20260508155703 70 25 2.0 3.0 0.00 0.01 0.01 52 1020.8
20260508155159 67 102 2.0 2.0 0.00 0.01 0.01 51 1020.7
20260508154657 67 295 5.0 7.0 0.00 0.01 0.01 48 1020.7
20260508154153 67 212 2.0 2.0 0.00 0.01 0.01 52 1020.8
20260508153650 67 26 2.0 2.0 0.00 0.01 0.01 53 1020.7
20260508153147 67 280 3.0 3.0 0.00 0.01 0.01 54 1020.8
20260508152644 66 73 1.0 1.0 0.00 0.01 0.01 55 1020.7
20260508152139 67 31 4.0 6.0 0.00 0.01 0.01 54 1020.7
20260508151636 67 79 1.0 1.0 0.00 0.01 0.01 51 1020.6
20260508151133 67 157 2.0 3.0 0.00 0.01 0.01 57 1020.8
20260508150630 66 184 3.0 3.0 0.00 0.01 0.01 55 1020.7
20260508150127 66 342 2.0 3.0 0.00 0.01 0.01 57 1020.6
20260508145622 65 97 1.0 2.0 0.00 0.01 0.01 61 1020.4
20260508145119 65 60 0.0 1.0 0.00 0.01 0.01 61 1020.5
20260508144617 65 217 2.0 4.0 0.00 0.01 0.01 58 1020.5
20260508144114 65 244 4.0 6.0 0.00 0.01 0.01 61 1020.5
20260508143612 65 139 1.0 2.0 0.00 0.01 0.01 61 1020.6
20260508143108 64 290 6.0 8.0 0.00 0.01 0.01 58 1020.4
20260508142605 64 51 3.0 7.0 0.00 0.01 0.01 58 1020.5
20260508142101 64 306 4.0 6.0 0.00 0.01 0.01 60 1020.6
20260508141558 64 242 3.0 4.0 0.00 0.01 0.01 60 1020.3
20260508141055 63 350 4.0 8.0 0.00 0.01 0.01 61 1020.4
20260508140553 64 245 4.0 4.0 0.00 0.01 0.01 59 1020.5
20260508140049 63 129 3.0 4.0 0.00 0.01 0.01 62 1020.4
20260508135545 63 298 4.0 8.0 0.00 0.01 0.01 61 1020.4
20260508135041 62 304 1.0 2.0 0.00 0.01 0.01 64 1020.3
20260508134538 63 150 2.0 2.0 0.00 0.01 0.01 62 1020.4
20260508134035 62 161 6.0 10.0 0.00 0.01 0.01 63 1020.2
20260508133532 62 165 2.0 2.0 0.00 0.01 0.01 63 1020.3
20260508133029 62 7 3.0 6.0 0.00 0.01 0.01 66 1020.2
20260508132527 61 268 2.0 3.0 0.00 0.01 0.01 68 1020.3
20260508132023 62 349 1.0 4.0 0.00 0.01 0.01 68 1020.2
20260508131519 61 72 2.0 2.0 0.00 0.01 0.01 68 1020.2
20260508131015 61 139 2.0 3.0 0.00 0.01 0.01 68 1020.2
20260508130513 61 9 4.0 6.0 0.00 0.01 0.01 68 1019.9
20260508130009 60 29 2.0 4.0 0.00 0.01 0.01 70 1020.0
20260508125505 60 221 3.0 3.0 0.00 0.01 0.01 74 1019.9
20260508125003 59 126 0.0 1.0 0.00 0.01 0.01 78 1020.0
20260508124500 59 175 2.0 2.0 0.00 0.01 0.01 81 1019.7
20260508123957 58 232 4.0 6.0 0.00 0.01 0.01 82 1019.9
20260508123456 58 85 0.0 1.0 0.00 0.01 0.01 85 1019.7
20260508122952 57 74 0.0 1.0 0.00 0.01 0.01 87 1019.7
20260508122449 57 197 2.0 2.0 0.00 0.01 0.01 87 1019.9
20260508121946 56 328 3.0 3.0 0.00 0.01 0.01 90 1019.7
20260508121444 55 213 3.0 6.0 0.00 0.01 0.01 91 1019.5
20260508120942 54 232 2.0 2.0 0.00 0.01 0.01 93 1019.3
20260508120439 53 104 1.0 2.0 0.00 0.01 0.01 95 1019.3
20260508115937 53 123 2.0 3.0 0.00 0.01 0.01 95 1019.3
20260508115435 52 114 4.0 4.0 0.00 0.01 0.01 96 1019.3
20260508114931 52 200 3.0 4.0 0.00 0.01 0.01 97 1019.4
20260508114428 52 224 2.0 2.0 0.00 0.01 0.01 97 1019.2
20260508113924 51 196 0.0 2.0 0.00 0.01 0.01 98 1019.2
20260508113422 51 126 0.0 0.0 0.00 0.01 0.01 98 1019.1
20260508112919 51 103 1.0 1.0 0.00 0.01 0.01 98 1019.1
20260508112416 51 107 0.0 1.0 0.00 0.01 0.01 98 1019.0
20260508111913 50 109 0.0 0.0 0.00 0.01 0.01 99 1018.9
20260508111410 50 97 0.0 0.0 0.00 0.01 0.01 99 1018.9
20260508110907 50 118 0.0 1.0 0.00 0.01 0.01 99 1018.9
20260508110405 50 105 0.0 0.0 0.00 0.01 0.01 99 1018.7
20260508105904 50 96 0.0 0.0 0.00 0.01 0.01 99 1018.5
20260508105401 49 110 0.0 0.0 0.00 0.01 0.01 99 1018.5
20260508104858 49 111 0.0 0.0 0.00 0.01 0.01 99 1018.3
20260508104355 49 106 0.0 0.0 0.00 0.01 0.01 98 1018.4
20260508103852 49 103 0.0 0.0 0.05 0.01 0.01 98 1018.2
20260508103349 49 116 0.0 0.0 0.05 0.01 0.01 98 1018.4
20260508102846 49 101 0.0 0.0 0.00 0.00 0.00 98 1018.0
20260508102344 49 108 0.0 0.0 0.00 0.00 0.00 98 1018.3
20260508101842 49 116 0.0 0.0 0.00 0.00 0.00 98 1018.1
20260508101339 49 115 0.0 0.0 0.00 0.00 0.00 98 1018.1
20260508100836 49 127 0.0 1.0 0.00 0.00 0.00 98 1017.9
20260508100335 49 109 0.0 0.0 0.00 0.00 0.00 98 1017.9
20260508095830 49 133 0.0 1.0 0.00 0.00 0.00 98 1018.0
20260508095328 50 138 0.0 0.0 0.00 0.00 0.00 98 1017.9
20260508094825 50 161 1.0 1.0 0.00 0.00 0.00 98 1017.8
20260508094322 50 154 1.0 1.0 0.00 0.00 0.00 98 1017.7
20260508093819 50 186 1.0 1.0 0.00 0.00 0.00 98 1017.6
20260508093316 50 200 2.0 2.0 0.00 0.00 0.00 98 1017.8
20260508092813 50 162 0.0 1.0 0.00 0.00 0.00 98 1017.7
20260508092313 50 96 0.0 0.0 0.00 0.00 0.00 98 1017.5
20260508091809 50 94 0.0 1.0 0.00 0.00 0.00 98 1017.4
20260508091300 50 242 0.0 1.0 0.00 0.00 0.00 98 1017.4
20260508090758 50 262 1.0 1.0 0.00 0.00 0.00 98 1017.1
20260508090256 50 109 0.0 0.0 0.00 0.00 0.00 98 1017.3
20260508085751 50 108 0.0 1.0 0.00 0.00 0.00 98 1017.2
20260508085248 50 133 1.0 1.0 0.00 0.00 0.00 98 1017.1
20260508084743 50 106 0.0 1.0 0.00 0.00 0.00 98 1017.3
20260508084241 50 121 0.0 0.0 0.00 0.00 0.00 98 1017.1
20260508083738 50 129 1.0 1.0 0.00 0.00 0.00 98 1017.1
20260508083236 50 121 0.0 0.0 0.00 0.00 0.00 98 1017.0
20260508082730 51 145 0.0 1.0 0.00 0.00 0.00 98 1017.0
20260508082229 51 199 1.0 1.0 0.00 0.00 0.00 98 1017.0
20260508081726 51 120 0.0 0.0 0.00 0.00 0.00 98 1016.8
20260508081222 51 156 1.0 1.0 0.00 0.00 0.00 98 1016.9
20260508080719 51 118 1.0 1.0 0.00 0.00 0.00 97 1017.0
20260508080218 51 270 1.0 1.0 0.00 0.00 0.00 97 1016.8
20260508075714 51 103 0.0 0.0 0.00 0.00 0.00 97 1016.6
20260508075211 51 126 1.0 1.0 0.00 0.00 0.00 97 1016.7
20260508074708 51 101 0.0 0.0 0.00 0.00 0.00 97 1016.5
20260508074206 51 104 0.0 0.0 0.00 0.00 0.00 97 1016.5
20260508073702 51 94 0.0 0.0 0.00 0.00 0.00 97 1016.7
20260508073200 52 109 0.0 0.0 0.00 0.00 0.00 97 1016.6
20260508072655 52 104 0.0 0.0 0.00 0.00 0.00 97 1016.5
20260508072153 52 102 0.0 0.0 0.00 0.00 0.00 96 1016.7
20260508071650 52 135 1.0 2.0 0.00 0.00 0.00 96 1016.8
20260508071149 52 168 1.0 1.0 0.00 0.00 0.00 97 1016.7
20260508070646 52 163 2.0 3.0 0.00 0.00 0.00 97 1016.6
20260508070144 52 113 1.0 1.0 0.00 0.00 0.00 97 1016.6
20260508065641 53 132 0.0 1.0 0.00 0.00 0.00 97 1016.5
20260508065139 52 127 1.0 1.0 0.00 0.00 0.00 97 1016.5
20260508064636 52 105 0.0 1.0 0.00 0.00 0.00 97 1016.4
20260508064134 52 135 0.0 1.0 0.00 0.00 0.00 97 1016.5
20260508063631 52 101 0.0 0.0 0.00 0.00 0.00 97 1016.4
20260508063130 52 134 2.0 3.0 0.00 0.00 0.00 97 1016.4
20260508062627 52 108 1.0 2.0 0.00 0.00 0.00 97 1016.5
20260508062123 52 240 2.0 2.0 0.00 0.00 0.00 97 1016.4
20260508061621 52 123 2.0 2.0 0.00 0.00 0.00 97 1016.1
20260508061118 52 133 0.0 1.0 0.00 0.00 0.00 97 1016.1
20260508060614 52 152 1.0 1.0 0.00 0.00 0.00 97 1015.9
20260508060112 52 115 0.0 0.0 0.00 0.00 0.00 97 1016.0
20260508055607 52 109 0.0 0.0 0.00 0.00 0.00 97 1016.1
20260508055105 52 110 0.0 0.0 0.00 0.00 0.00 97 1015.9
20260508054601 52 113 0.0 0.0 0.00 0.00 0.00 96 1015.9
20260508054058 52 137 1.0 1.0 0.00 0.00 0.00 96 1016.0
20260508053555 52 120 0.0 0.0 0.00 0.00 0.00 96 1015.8
20260508053053 52 115 0.0 0.0 0.00 0.00 0.00 96 1015.9
20260508052550 52 115 0.0 0.0 0.00 0.00 0.00 96 1016.0
20260508052047 52 125 0.0 0.0 0.00 0.00 0.00 96 1015.9
20260508051543 52 112 0.0 0.0 0.00 0.00 0.00 96 1016.1
20260508051038 52 106 0.0 0.0 0.00 0.00 0.00 96 1015.9
20260508050535 52 233 0.0 1.0 0.00 0.00 0.00 96 1015.9
20260508050032 52 233 0.0 0.0 0.00 0.00 0.00 95 1015.8
20260508045528 52 233 0.0 0.0 0.00 0.00 0.00 95 1015.9
20260508045026 52 233 0.0 0.0 0.00 0.00 0.00 95 1016.0
20260508044524 52 94 0.0 0.0 0.00 0.00 0.00 95 1015.9
20260508044019 52 112 0.0 0.0 0.00 0.00 0.00 95 1015.9
20260508043516 52 111 0.0 0.0 0.00 0.00 0.00 95 1015.7
20260508043013 52 147 1.0 1.0 0.00 0.00 0.00 95 1015.5
20260508042510 52 200 1.0 1.0 0.00 0.00 0.00 95 1015.5
20260508042007 52 146 1.0 1.0 0.00 0.00 0.00 95 1015.6
20260508041504 52 186 0.0 1.0 0.00 0.00 0.00 95 1015.2
20260508041000 52 130 0.0 1.0 0.00 0.00 0.00 95 1015.6
20260508040458 52 114 0.0 0.0 0.00 0.00 0.00 95 1015.2
20260508035955 52 107 0.0 1.0 0.00 0.63 0.63 95 1015.4
20260508035452 52 175 3.0 3.0 0.00 0.63 0.63 95 1015.3
20260508034949 52 200 1.0 1.0 0.00 0.63 0.63 95 1015.4
20260508034446 52 193 0.0 1.0 0.00 0.63 0.63 95 1015.2
20260508033942 52 306 1.0 1.0 0.00 0.63 0.63 94 1015.1
20260508033441 52 244 1.0 2.0 0.00 0.63 0.63 94 1015.2
20260508032938 52 155 1.0 1.0 0.00 0.63 0.63 94 1014.7
20260508032435 52 157 2.0 2.0 0.00 0.63 0.63 94 1015.0
20260508031932 52 139 2.0 2.0 0.00 0.63 0.63 94 1015.1
20260508031429 52 164 1.0 1.0 0.00 0.63 0.63 94 1014.8
20260508030924 52 103 1.0 1.0 0.00 0.63 0.63 94 1014.7
20260508030422 52 210 2.0 3.0 0.00 0.63 0.63 94 1014.8
20260508025919 52 143 1.0 1.0 0.00 0.63 0.63 94 1015.1
20260508025416 53 132 0.0 1.0 0.00 0.63 0.63 94 1015.0
20260508024913 53 177 1.0 1.0 0.00 0.63 0.63 93 1015.0
20260508024409 53 138 0.0 0.0 0.00 0.63 0.63 93 1015.1